CSN3949 ZSPD-ZSAM

Flight info

Callsign CSN3949
Flight time 1h 27m
Altitude 25600
Route NXD84D NXD W131 AKDIM A470 ENVEN ENVEN8X
Aircraft A359/H-SDE2E3GHIJ3J4J5LM1ORWXY/LB1D1

Departure

Time 2026-05-05 14:39
Airport Shanghai Pudong International Airport (ZSPD)

Arrival

Time 2026-05-05 16:06
Airport Xiamen Gaoqi International Airport (ZSAM)
Time Latitude Longitude Altitude Speed Heading
2026-05-05 14:14 31.14741 121.79800 29 ft 0 kts 72°
2026-05-05 14:26 31.14739 121.79796 29 ft 2 kts 72°
2026-05-05 14:26 31.14734 121.79778 28 ft 2 kts 67°
2026-05-05 14:27 31.14727 121.79761 27 ft 2 kts 62°
2026-05-05 14:27 31.14718 121.79744 28 ft 2 kts 54°
2026-05-05 14:27 31.14708 121.79730 28 ft 2 kts 43°
2026-05-05 14:27 31.14695 121.79718 29 ft 2 kts 28°
2026-05-05 14:28 31.14680 121.79711 28 ft 2 kts 11°
2026-05-05 14:28 31.14663 121.79710 28 ft 2 kts 355°
2026-05-05 14:28 31.14649 121.79713 28 ft 1 kts 344°
2026-05-05 14:28 31.14644 121.79714 28 ft 0 kts 342°
2026-05-05 14:29 31.14647 121.79713 28 ft 4 kts 342°
2026-05-05 14:30 31.14709 121.79689 28 ft 12 kts 341°
2026-05-05 14:30 31.14803 121.79653 29 ft 16 kts 342°
2026-05-05 14:30 31.14922 121.79608 29 ft 20 kts 342°
2026-05-05 14:30 31.15064 121.79554 29 ft 20 kts 342°
2026-05-05 14:31 31.15185 121.79505 29 ft 4 kts 326°
2026-05-05 14:31 31.15203 121.79471 29 ft 8 kts 283°
2026-05-05 14:31 31.15192 121.79397 29 ft 11 kts 254°
2026-05-05 14:31 31.15184 121.79368 29 ft 0 kts 250°
2026-05-05 14:32 31.15177 121.79344 29 ft 9 kts 250°
2026-05-05 14:32 31.15150 121.79255 29 ft 12 kts 251°
2026-05-05 14:32 31.15162 121.79192 29 ft 6 kts 319°
2026-05-05 14:32 31.15205 121.79165 29 ft 9 kts 340°
2026-05-05 14:33 31.15278 121.79137 29 ft 13 kts 342°
2026-05-05 14:33 31.15377 121.79100 29 ft 17 kts 342°
2026-05-05 14:33 31.15502 121.79053 29 ft 21 kts 341°
2026-05-05 14:33 31.15631 121.79004 29 ft 14 kts 342°
2026-05-05 14:34 31.15739 121.78964 29 ft 18 kts 342°
2026-05-05 14:34 31.15805 121.78939 28 ft 0 kts 342°
2026-05-05 14:34 31.15806 121.78939 28 ft 0 kts 342°
2026-05-05 14:34 31.15817 121.78935 29 ft 10 kts 342°
2026-05-05 14:35 31.15905 121.78902 28 ft 11 kts 342°
2026-05-05 14:35 31.15959 121.78856 29 ft 9 kts 286°
2026-05-05 14:35 31.15955 121.78805 29 ft 0 kts 252°
2026-05-05 14:35 31.15954 121.78801 29 ft 0 kts 252°
2026-05-05 14:36 31.15952 121.78792 29 ft 2 kts 252°
2026-05-05 14:36 31.15951 121.78791 29 ft 0 kts 252°
2026-05-05 14:36 31.15948 121.78780 29 ft 3 kts 252°
2026-05-05 14:36 31.15935 121.78732 28 ft 9 kts 252°
2026-05-05 14:37 31.15908 121.78694 28 ft 6 kts 201°
2026-05-05 14:37 31.15862 121.78697 29 ft 6 kts 160°
2026-05-05 14:37 31.15860 121.78697 29 ft 0 kts 160°
2026-05-05 14:38 31.15842 121.78705 29 ft 18 kts 160°
2026-05-05 14:38 31.15429 121.78861 28 ft 104 kts 163°
2026-05-05 14:39 31.14495 121.79202 48 ft 172 kts 164°
2026-05-05 14:39 31.13347 121.79643 887 ft 172 kts 162°
2026-05-05 14:39 31.12229 121.80076 1985 ft 172 kts 165°
2026-05-05 14:39 31.11039 121.80487 2645 ft 191 kts 166°
2026-05-05 14:40 31.09662 121.80936 2911 ft 222 kts 165°
2026-05-05 14:40 31.08086 121.81457 2978 ft 243 kts 165°
2026-05-05 14:40 31.06434 121.82012 2998 ft 248 kts 165°
2026-05-05 14:40 31.04778 121.82571 3030 ft 247 kts 165°
2026-05-05 14:41 31.03104 121.83096 3395 ft 254 kts 169°
2026-05-05 14:41 31.01339 121.83118 4360 ft 256 kts 190°
2026-05-05 14:41 30.99691 121.82291 5249 ft 266 kts 217°
2026-05-05 14:41 30.98514 121.80607 6223 ft 271 kts 242°
2026-05-05 14:42 30.97748 121.78593 7330 ft 273 kts 251°
2026-05-05 14:42 30.97339 121.76427 8457 ft 276 kts 261°
2026-05-05 14:42 30.97103 121.74186 9503 ft 282 kts 264°
2026-05-05 14:42 30.96929 121.71885 10460 ft 291 kts 265°
2026-05-05 14:43 30.96772 121.69427 10942 ft 317 kts 265°
2026-05-05 14:43 30.96623 121.66801 11415 ft 338 kts 266°
2026-05-05 14:43 30.96481 121.64149 12185 ft 345 kts 266°
2026-05-05 14:43 30.96332 121.61338 13140 ft 349 kts 266°
2026-05-05 14:44 30.96184 121.58494 14133 ft 351 kts 266°
2026-05-05 14:44 30.96034 121.55619 14888 ft 359 kts 267°
2026-05-05 14:44 30.95880 121.52694 15664 ft 364 kts 267°
2026-05-05 14:44 30.95725 121.49732 16524 ft 369 kts 267°
2026-05-05 14:45 30.95567 121.46737 17408 ft 372 kts 267°
2026-05-05 14:45 30.95407 121.43716 18318 ft 375 kts 268°
2026-05-05 14:45 30.95245 121.40670 19063 ft 379 kts 268°
2026-05-05 14:45 30.95082 121.37619 19796 ft 384 kts 268°
2026-05-05 14:46 30.94915 121.34495 20575 ft 388 kts 268°
2026-05-05 14:46 30.94745 121.31336 21369 ft 393 kts 268°
2026-05-05 14:46 30.94572 121.28146 22155 ft 397 kts 268°
2026-05-05 14:46 30.94396 121.24907 22946 ft 402 kts 268°
2026-05-05 14:47 30.94217 121.21643 23705 ft 406 kts 268°
2026-05-05 14:47 30.94036 121.18346 24343 ft 411 kts 268°
2026-05-05 14:47 30.93852 121.15009 24980 ft 415 kts 268°
2026-05-05 14:47 30.93665 121.11629 25424 ft 418 kts 268°
2026-05-05 14:48 30.93477 121.08248 25584 ft 419 kts 268°
2026-05-05 14:48 30.93284 121.04794 25599 ft 437 kts 268°
2026-05-05 14:48 30.93084 121.01219 25592 ft 456 kts 268°
2026-05-05 14:48 30.92874 120.97502 25594 ft 463 kts 267°
2026-05-05 14:49 30.92671 120.93942 25594 ft 464 kts 268°
2026-05-05 14:49 30.92456 120.90199 25599 ft 464 kts 268°
2026-05-05 14:49 30.92240 120.86445 25599 ft 464 kts 268°
2026-05-05 14:49 30.92024 120.82692 25599 ft 464 kts 268°
2026-05-05 14:50 30.91806 120.78939 25599 ft 464 kts 268°
2026-05-05 14:50 30.91587 120.75188 25599 ft 464 kts 268°
2026-05-05 14:50 30.91368 120.71432 25596 ft 464 kts 268°
2026-05-05 14:50 30.91147 120.67679 25596 ft 464 kts 268°
2026-05-05 14:51 30.90925 120.63931 25593 ft 464 kts 268°
2026-05-05 14:51 30.90703 120.60185 25590 ft 464 kts 268°
2026-05-05 14:51 30.90479 120.56432 25591 ft 464 kts 268°
2026-05-05 14:51 30.90249 120.52685 25590 ft 464 kts 267°
2026-05-05 14:52 30.89788 120.48961 25587 ft 467 kts 259°
2026-05-05 14:52 30.88753 120.45367 25588 ft 470 kts 248°
2026-05-05 14:52 30.87104 120.42071 25585 ft 473 kts 236°
2026-05-05 14:52 30.84921 120.39184 25584 ft 477 kts 226°
2026-05-05 14:53 30.83276 120.37479 25585 ft 480 kts 222°
2026-05-05 14:53 30.79690 120.34349 25585 ft 483 kts 217°
2026-05-05 14:53 30.76942 120.32172 25585 ft 484 kts 216°
2026-05-05 14:53 30.74139 120.29996 25585 ft 484 kts 216°
2026-05-05 14:54 30.71341 120.27808 25582 ft 484 kts 217°
2026-05-05 14:54 30.69462 120.26319 25582 ft 484 kts 217°
2026-05-05 14:54 30.65797 120.23371 25578 ft 483 kts 217°
2026-05-05 14:54 30.63967 120.21882 25582 ft 482 kts 217°
2026-05-05 14:55 30.60301 120.18884 25582 ft 482 kts 217°
2026-05-05 14:55 30.58489 120.17399 25582 ft 481 kts 217°
2026-05-05 14:55 30.55750 120.15153 25580 ft 481 kts 217°
2026-05-05 14:55 30.53018 120.12914 25582 ft 482 kts 217°
2026-05-05 14:56 30.50279 120.10673 25581 ft 482 kts 218°
2026-05-05 14:56 30.47527 120.08426 25583 ft 484 kts 218°
2026-05-05 14:56 30.44766 120.06186 25581 ft 485 kts 216°
2026-05-05 14:56 30.41898 120.04123 25582 ft 485 kts 213°
2026-05-05 14:57 30.38991 120.02125 25585 ft 485 kts 212°
2026-05-05 14:57 30.36079 120.00165 25586 ft 485 kts 212°
2026-05-05 14:57 30.33155 119.98220 25584 ft 485 kts 212°
2026-05-05 14:57 30.30220 119.96276 25590 ft 485 kts 212°
2026-05-05 14:58 30.27293 119.94339 25590 ft 485 kts 212°
2026-05-05 14:58 30.24359 119.92395 25590 ft 485 kts 212°
2026-05-05 14:58 30.21466 119.90477 25593 ft 485 kts 212°
2026-05-05 14:58 30.18538 119.88535 25592 ft 485 kts 212°
2026-05-05 14:59 30.15614 119.86595 25593 ft 485 kts 212°
2026-05-05 14:59 30.12690 119.84656 25593 ft 485 kts 212°
2026-05-05 14:59 30.09755 119.82710 25596 ft 485 kts 212°
2026-05-05 14:59 30.06822 119.80770 25597 ft 487 kts 212°
2026-05-05 15:00 30.03879 119.78831 25592 ft 487 kts 212°
2026-05-05 15:00 30.01933 119.77546 25597 ft 487 kts 212°
2026-05-05 15:00 29.98016 119.74916 25601 ft 487 kts 213°
2026-05-05 15:00 29.95098 119.72940 25607 ft 487 kts 213°
2026-05-05 15:01 29.92178 119.70963 25603 ft 487 kts 213°
2026-05-05 15:01 29.89246 119.69012 25598 ft 487 kts 210°
2026-05-05 15:01 29.86138 119.67437 25608 ft 490 kts 201°
2026-05-05 15:01 29.82817 119.66511 25604 ft 493 kts 190°
2026-05-05 15:02 29.79396 119.66076 25606 ft 493 kts 186°
2026-05-05 15:02 29.76015 119.65825 25615 ft 493 kts 185°
2026-05-05 15:02 29.72584 119.65645 25615 ft 493 kts 184°
2026-05-05 15:02 29.69159 119.65457 25615 ft 493 kts 185°
2026-05-05 15:03 29.65732 119.65250 25616 ft 493 kts 185°
2026-05-05 15:03 29.62305 119.65029 25617 ft 493 kts 185°
2026-05-05 15:03 29.58883 119.64860 25619 ft 493 kts 183°
2026-05-05 15:03 29.55454 119.64770 25619 ft 492 kts 183°
2026-05-05 15:04 29.52031 119.64692 25617 ft 492 kts 184°
2026-05-05 15:04 29.48616 119.64538 25627 ft 491 kts 185°
2026-05-05 15:04 29.45202 119.64334 25627 ft 491 kts 185°
2026-05-05 15:04 29.41795 119.64109 25626 ft 491 kts 185°
2026-05-05 15:05 29.35038 119.63663 25633 ft 470 kts 185°
2026-05-05 15:05 29.31847 119.63463 25628 ft 449 kts 185°
2026-05-05 15:05 29.28799 119.63276 25644 ft 430 kts 185°
2026-05-05 15:06 29.25865 119.63098 25639 ft 413 kts 186°
2026-05-05 15:06 29.23060 119.62928 25638 ft 396 kts 186°
2026-05-05 15:06 29.20396 119.62766 25634 ft 382 kts 186°
2026-05-05 15:06 29.17719 119.62602 25635 ft 379 kts 186°
2026-05-05 15:07 29.15122 119.62440 25632 ft 379 kts 186°
2026-05-05 15:07 29.12489 119.62275 25634 ft 379 kts 186°
2026-05-05 15:07 29.09853 119.62111 25632 ft 380 kts 186°
2026-05-05 15:07 29.07183 119.61948 25632 ft 393 kts 186°
2026-05-05 15:08 29.04365 119.61771 25623 ft 416 kts 186°
2026-05-05 15:08 29.01394 119.61576 25621 ft 439 kts 186°
2026-05-05 15:08 28.98269 119.61372 25626 ft 460 kts 186°
2026-05-05 15:08 28.95005 119.61162 25626 ft 479 kts 186°
2026-05-05 15:09 28.91651 119.60953 25638 ft 485 kts 186°
2026-05-05 15:09 28.88266 119.60747 25646 ft 487 kts 186°
2026-05-05 15:09 28.84887 119.60543 25651 ft 487 kts 186°
2026-05-05 15:09 28.81509 119.60340 25647 ft 486 kts 186°
2026-05-05 15:10 28.78133 119.60135 25655 ft 485 kts 186°
2026-05-05 15:10 28.74775 119.59929 25656 ft 484 kts 186°
2026-05-05 15:10 28.71409 119.59722 25652 ft 484 kts 186°
2026-05-05 15:10 28.68048 119.59514 25670 ft 484 kts 186°
2026-05-05 15:11 28.64679 119.59305 25669 ft 484 kts 186°
2026-05-05 15:11 28.61319 119.59097 25663 ft 484 kts 186°
2026-05-05 15:11 28.57952 119.58888 25662 ft 484 kts 186°
2026-05-05 15:11 28.54595 119.58682 25665 ft 481 kts 187°
2026-05-05 15:12 28.51256 119.58476 25669 ft 479 kts 187°
2026-05-05 15:12 28.47932 119.58271 25675 ft 479 kts 187°
2026-05-05 15:12 28.44604 119.58066 25674 ft 479 kts 187°
2026-05-05 15:12 28.41280 119.57872 25675 ft 479 kts 186°
2026-05-05 15:13 28.37996 119.57689 25679 ft 479 kts 186°
2026-05-05 15:13 28.34669 119.57510 25681 ft 479 kts 186°
2026-05-05 15:13 28.31349 119.57332 25675 ft 478 kts 187°
2026-05-05 15:13 28.28017 119.57153 25686 ft 477 kts 187°
2026-05-05 15:14 28.24707 119.56973 25683 ft 476 kts 187°
2026-05-05 15:14 28.21403 119.56792 25683 ft 476 kts 187°
2026-05-05 15:14 28.18090 119.56609 25693 ft 476 kts 187°
2026-05-05 15:14 28.14787 119.56426 25691 ft 476 kts 187°
2026-05-05 15:15 28.11480 119.56243 25694 ft 476 kts 187°
2026-05-05 15:15 28.08170 119.56074 25694 ft 476 kts 186°
2026-05-05 15:15 28.04852 119.55987 25693 ft 476 kts 185°
2026-05-05 15:15 28.01538 119.55949 25696 ft 476 kts 185°
2026-05-05 15:16 27.98230 119.55926 25699 ft 475 kts 185°
2026-05-05 15:16 27.94921 119.55902 25703 ft 475 kts 185°
2026-05-05 15:16 27.91609 119.55870 25702 ft 475 kts 185°
2026-05-05 15:16 27.88305 119.55840 25702 ft 475 kts 185°
2026-05-05 15:17 27.84999 119.55825 25704 ft 475 kts 185°
2026-05-05 15:17 27.81731 119.55813 25712 ft 476 kts 185°
2026-05-05 15:17 27.78424 119.55802 25707 ft 475 kts 185°
2026-05-05 15:17 27.75114 119.55789 25715 ft 475 kts 185°
2026-05-05 15:18 27.71799 119.55773 25709 ft 475 kts 185°
2026-05-05 15:18 27.68502 119.55756 25710 ft 466 kts 185°
2026-05-05 15:18 27.65344 119.55747 25720 ft 445 kts 185°
2026-05-05 15:18 27.62316 119.55740 25721 ft 425 kts 185°
2026-05-05 15:19 27.59427 119.55732 25722 ft 406 kts 186°
2026-05-05 15:19 27.56658 119.55721 25713 ft 390 kts 186°
2026-05-05 15:19 27.54012 119.55711 25718 ft 372 kts 187°
2026-05-05 15:19 27.51456 119.55695 25724 ft 363 kts 187°
2026-05-05 15:20 27.48940 119.55671 25717 ft 361 kts 187°
2026-05-05 15:20 27.46427 119.55644 25716 ft 361 kts 187°
2026-05-05 15:20 27.43907 119.55621 25714 ft 362 kts 187°
2026-05-05 15:20 27.41395 119.55601 25713 ft 362 kts 187°
2026-05-05 15:21 27.38869 119.55591 25714 ft 362 kts 187°
2026-05-05 15:21 27.36346 119.55588 25715 ft 362 kts 187°
2026-05-05 15:21 27.33821 119.55587 25717 ft 362 kts 187°
2026-05-05 15:21 27.31332 119.55586 25717 ft 362 kts 186°
2026-05-05 15:22 27.28809 119.55586 25705 ft 362 kts 187°
2026-05-05 15:22 27.26293 119.55586 25715 ft 361 kts 187°
2026-05-05 15:22 27.23780 119.55586 25714 ft 361 kts 187°
2026-05-05 15:22 27.21272 119.55574 25717 ft 360 kts 187°
2026-05-05 15:23 27.18768 119.55554 25714 ft 360 kts 187°
2026-05-05 15:23 27.16266 119.55532 25715 ft 360 kts 187°
2026-05-05 15:23 27.13759 119.55511 25712 ft 360 kts 187°
2026-05-05 15:23 27.11255 119.55491 25715 ft 360 kts 187°
2026-05-05 15:24 27.08748 119.55473 25713 ft 360 kts 187°
2026-05-05 15:24 27.06238 119.55456 25713 ft 360 kts 187°
2026-05-05 15:24 27.03728 119.55440 25715 ft 360 kts 187°
2026-05-05 15:24 27.01226 119.55425 25715 ft 359 kts 188°
2026-05-05 15:25 26.98728 119.55410 25715 ft 358 kts 188°
2026-05-05 15:25 26.96237 119.55395 25719 ft 357 kts 188°
2026-05-05 15:25 26.93784 119.55385 25712 ft 349 kts 188°
2026-05-05 15:25 26.91370 119.55374 25715 ft 346 kts 188°
2026-05-05 15:26 26.88965 119.55359 25712 ft 345 kts 188°
2026-05-05 15:26 26.86564 119.55340 25706 ft 345 kts 188°
2026-05-05 15:26 26.84202 119.55321 25711 ft 345 kts 188°
2026-05-05 15:26 26.81797 119.55303 25712 ft 345 kts 188°
2026-05-05 15:27 26.79400 119.55286 25709 ft 345 kts 188°
2026-05-05 15:27 26.77001 119.55269 25675 ft 345 kts 189°
2026-05-05 15:27 26.74606 119.55256 25696 ft 344 kts 189°
2026-05-05 15:27 26.72214 119.55242 25707 ft 343 kts 189°
2026-05-05 15:28 26.69844 119.55229 25711 ft 336 kts 189°
2026-05-05 15:28 26.67552 119.55226 25714 ft 322 kts 189°
2026-05-05 15:28 26.65350 119.55224 25714 ft 314 kts 190°
2026-05-05 15:28 26.63164 119.55210 25711 ft 313 kts 190°
2026-05-05 15:29 26.60984 119.55189 25701 ft 313 kts 190°
2026-05-05 15:29 26.58800 119.55167 25705 ft 314 kts 190°
2026-05-05 15:29 26.56617 119.55149 25708 ft 314 kts 190°
2026-05-05 15:29 26.54462 119.55133 25707 ft 314 kts 190°
2026-05-05 15:30 26.52281 119.55117 25704 ft 313 kts 190°
2026-05-05 15:30 26.50101 119.55102 25671 ft 313 kts 191°
2026-05-05 15:30 26.47927 119.55089 25701 ft 311 kts 191°
2026-05-05 15:30 26.45763 119.55076 25705 ft 310 kts 191°
2026-05-05 15:31 26.43608 119.55063 25705 ft 310 kts 191°
2026-05-05 15:31 26.41450 119.55047 25705 ft 309 kts 191°
2026-05-05 15:31 26.39305 119.55030 25694 ft 309 kts 191°
2026-05-05 15:31 26.37149 119.55016 25696 ft 310 kts 191°
2026-05-05 15:32 26.34992 119.54997 25700 ft 310 kts 191°
2026-05-05 15:32 26.32835 119.54970 25699 ft 310 kts 191°
2026-05-05 15:32 26.30678 119.54942 25699 ft 310 kts 191°
2026-05-05 15:32 26.28523 119.54914 25694 ft 310 kts 191°
2026-05-05 15:33 26.26368 119.54887 25703 ft 309 kts 191°
2026-05-05 15:33 26.24219 119.54852 25693 ft 308 kts 192°
2026-05-05 15:33 26.22102 119.54628 25687 ft 301 kts 199°
2026-05-05 15:33 26.20076 119.54140 25696 ft 296 kts 204°
2026-05-05 15:34 26.18090 119.53538 25704 ft 296 kts 206°
2026-05-05 15:34 26.16113 119.52882 25696 ft 296 kts 206°
2026-05-05 15:34 26.14141 119.52200 25693 ft 297 kts 207°
2026-05-05 15:34 26.12173 119.51512 25694 ft 297 kts 207°
2026-05-05 15:35 26.10196 119.50822 25693 ft 298 kts 207°
2026-05-05 15:35 26.08239 119.50145 25691 ft 298 kts 207°
2026-05-05 15:35 26.06255 119.49462 25692 ft 298 kts 207°
2026-05-05 15:35 26.04262 119.48778 25697 ft 307 kts 207°
2026-05-05 15:36 26.02143 119.48032 25681 ft 332 kts 206°
2026-05-05 15:36 25.99852 119.47223 25665 ft 357 kts 205°
2026-05-05 15:36 25.97401 119.46372 25649 ft 380 kts 205°
2026-05-05 15:36 25.94799 119.45480 25665 ft 403 kts 204°
2026-05-05 15:37 25.92044 119.44545 25668 ft 423 kts 204°
2026-05-05 15:37 25.89159 119.43571 25671 ft 443 kts 204°
2026-05-05 15:37 25.86175 119.42568 25671 ft 453 kts 204°
2026-05-05 15:37 25.83136 119.41554 25677 ft 455 kts 203°
2026-05-05 15:38 25.80141 119.40556 25676 ft 455 kts 203°
2026-05-05 15:38 25.77148 119.39433 25689 ft 450 kts 208°
2026-05-05 15:38 25.74379 119.37897 25578 ft 439 kts 217°
2026-05-05 15:38 25.71958 119.35926 25318 ft 428 kts 227°
2026-05-05 15:39 25.69836 119.33621 25089 ft 425 kts 231°
2026-05-05 15:39 25.67803 119.31243 24857 ft 424 kts 231°
2026-05-05 15:39 25.65785 119.28862 24633 ft 423 kts 231°
2026-05-05 15:39 25.63985 119.26741 24421 ft 422 kts 231°
2026-05-05 15:40 25.61964 119.24364 24241 ft 421 kts 232°
2026-05-05 15:40 25.59956 119.22003 24007 ft 422 kts 231°
2026-05-05 15:40 25.57942 119.19636 23784 ft 422 kts 231°
2026-05-05 15:40 25.55954 119.17304 23540 ft 421 kts 231°
2026-05-05 15:41 25.53942 119.14951 23280 ft 419 kts 231°
2026-05-05 15:41 25.51945 119.12613 22981 ft 418 kts 231°
2026-05-05 15:41 25.49949 119.10278 22714 ft 417 kts 231°
2026-05-05 15:41 25.47967 119.07959 22467 ft 415 kts 231°
2026-05-05 15:42 25.45984 119.05639 22212 ft 413 kts 231°
2026-05-05 15:42 25.44674 119.04107 22052 ft 412 kts 231°
2026-05-05 15:42 25.42039 119.01028 21713 ft 410 kts 231°
2026-05-05 15:42 25.40747 118.99519 21550 ft 409 kts 231°
2026-05-05 15:43 25.38797 118.97243 21296 ft 407 kts 231°
2026-05-05 15:43 25.36850 118.94973 21070 ft 406 kts 231°
2026-05-05 15:43 25.34905 118.92704 20832 ft 406 kts 231°
2026-05-05 15:43 25.32955 118.90429 20578 ft 405 kts 231°
2026-05-05 15:44 25.31060 118.88142 20340 ft 403 kts 232°
2026-05-05 15:44 25.29185 118.85851 20110 ft 401 kts 232°
2026-05-05 15:44 25.27311 118.83566 19871 ft 400 kts 231°
2026-05-05 15:44 25.25447 118.81299 19625 ft 398 kts 231°
2026-05-05 15:45 25.23579 118.79034 19403 ft 398 kts 231°
2026-05-05 15:45 25.21720 118.76784 19170 ft 396 kts 231°
2026-05-05 15:45 25.19892 118.74575 18937 ft 394 kts 231°
2026-05-05 15:45 25.18052 118.72348 18721 ft 392 kts 231°
2026-05-05 15:46 25.16215 118.70136 18511 ft 391 kts 230°
2026-05-05 15:46 25.14379 118.67927 18261 ft 390 kts 230°
2026-05-05 15:46 25.12546 118.65716 17995 ft 389 kts 231°
2026-05-05 15:46 25.10715 118.63509 17746 ft 390 kts 230°
2026-05-05 15:47 25.08876 118.61302 17478 ft 389 kts 230°
2026-05-05 15:47 25.07018 118.59140 17214 ft 387 kts 229°
2026-05-05 15:47 25.05154 118.57015 16965 ft 385 kts 229°
2026-05-05 15:47 25.03298 118.54900 16530 ft 380 kts 229°
2026-05-05 15:48 25.01481 118.52821 15798 ft 374 kts 229°
2026-05-05 15:48 24.99689 118.50762 15052 ft 370 kts 229°
2026-05-05 15:48 24.97923 118.48732 14644 ft 359 kts 229°
2026-05-05 15:48 24.96245 118.46810 14532 ft 339 kts 229°
2026-05-05 15:49 24.94659 118.44992 14433 ft 319 kts 229°
2026-05-05 15:49 24.93162 118.43278 14334 ft 302 kts 229°
2026-05-05 15:49 24.91740 118.41670 14363 ft 284 kts 229°
2026-05-05 15:49 24.90400 118.40134 14195 ft 272 kts 229°
2026-05-05 15:50 24.89124 118.38663 14042 ft 261 kts 229°
2026-05-05 15:50 24.87896 118.37250 13889 ft 249 kts 229°
2026-05-05 15:50 24.86724 118.35908 13790 ft 237 kts 230°
2026-05-05 15:50 24.85610 118.34630 13653 ft 227 kts 229°
2026-05-05 15:51 24.84534 118.33396 13531 ft 221 kts 230°
2026-05-05 15:51 24.83472 118.32178 13412 ft 220 kts 230°
2026-05-05 15:51 24.82412 118.30968 13165 ft 218 kts 229°
2026-05-05 15:51 24.81361 118.29771 12896 ft 217 kts 230°
2026-05-05 15:52 24.80312 118.28572 12626 ft 217 kts 230°
2026-05-05 15:52 24.79267 118.27377 12357 ft 216 kts 230°
2026-05-05 15:52 24.78237 118.26204 12087 ft 215 kts 230°
2026-05-05 15:52 24.77186 118.25006 11815 ft 215 kts 230°
2026-05-05 15:53 24.76163 118.23840 11556 ft 214 kts 230°
2026-05-05 15:53 24.75126 118.22660 11260 ft 214 kts 230°
2026-05-05 15:53 24.74097 118.21490 10972 ft 212 kts 230°
2026-05-05 15:53 24.73072 118.20323 10703 ft 212 kts 230°
2026-05-05 15:54 24.72048 118.19158 10443 ft 212 kts 231°
2026-05-05 15:54 24.71026 118.17996 10182 ft 210 kts 231°
2026-05-05 15:54 24.70010 118.16840 9917 ft 210 kts 231°
2026-05-05 15:54 24.68954 118.15633 9710 ft 227 kts 231°
2026-05-05 15:55 24.67847 118.14370 9535 ft 230 kts 230°
2026-05-05 15:55 24.66726 118.13098 9132 ft 232 kts 230°
2026-05-05 15:55 24.65600 118.11822 8762 ft 231 kts 230°
2026-05-05 15:55 24.64484 118.10557 8469 ft 231 kts 230°
2026-05-05 15:56 24.63368 118.09293 8178 ft 230 kts 229°
2026-05-05 15:56 24.62267 118.08043 7902 ft 231 kts 229°
2026-05-05 15:56 24.61146 118.06772 7614 ft 232 kts 229°
2026-05-05 15:56 24.60024 118.05498 7331 ft 232 kts 229°
2026-05-05 15:57 24.58900 118.04225 7035 ft 233 kts 229°
2026-05-05 15:57 24.57770 118.02944 6774 ft 233 kts 229°
2026-05-05 15:57 24.56639 118.01664 6485 ft 233 kts 228°
2026-05-05 15:57 24.55516 118.00369 6189 ft 233 kts 230°
2026-05-05 15:58 24.54436 117.99045 5901 ft 233 kts 230°
2026-05-05 15:58 24.53357 117.97712 5602 ft 233 kts 230°
2026-05-05 15:58 24.52276 117.96385 5326 ft 233 kts 229°
2026-05-05 15:58 24.51194 117.95062 5072 ft 233 kts 229°
2026-05-05 15:59 24.50113 117.93745 4799 ft 232 kts 229°
2026-05-05 15:59 24.49031 117.92429 4519 ft 233 kts 228°
2026-05-05 15:59 24.47947 117.91118 4293 ft 228 kts 227°
2026-05-05 15:59 24.46731 117.90126 4178 ft 217 kts 202°
2026-05-05 16:00 24.45299 117.89999 4096 ft 203 kts 167°
2026-05-05 16:00 24.44084 117.90670 3989 ft 192 kts 144°
2026-05-05 16:00 24.43030 117.91556 3888 ft 191 kts 141°
2026-05-05 16:00 24.42054 117.92510 3742 ft 188 kts 131°
2026-05-05 16:01 24.41520 117.93796 3546 ft 188 kts 97°
2026-05-05 16:01 24.41795 117.95169 3386 ft 187 kts 61°
2026-05-05 16:01 24.42542 117.96323 3211 ft 185 kts 52°
2026-05-05 16:01 24.43350 117.97411 3063 ft 178 kts 52°
2026-05-05 16:02 24.44127 117.98398 2984 ft 164 kts 50°
2026-05-05 16:02 24.44817 117.99349 2802 ft 156 kts 54°
2026-05-05 16:02 24.45464 118.00267 2592 ft 148 kts 52°
2026-05-05 16:02 24.46092 118.01137 2394 ft 144 kts 52°
2026-05-05 16:03 24.46709 118.01995 2199 ft 144 kts 52°
2026-05-05 16:03 24.47326 118.02857 2021 ft 144 kts 52°
2026-05-05 16:03 24.47945 118.03722 1822 ft 144 kts 51°
2026-05-05 16:03 24.48559 118.04579 1651 ft 143 kts 51°
2026-05-05 16:04 24.49155 118.05413 1428 ft 134 kts 51°
2026-05-05 16:04 24.49716 118.06197 1271 ft 128 kts 51°
2026-05-05 16:04 24.50262 118.06960 1116 ft 126 kts 51°
2026-05-05 16:04 24.50798 118.07711 937 ft 124 kts 52°
2026-05-05 16:05 24.51330 118.08455 780 ft 124 kts 52°
2026-05-05 16:05 24.51861 118.09197 630 ft 124 kts 54°
2026-05-05 16:05 24.52396 118.09942 479 ft 125 kts 54°
2026-05-05 16:05 24.52945 118.10689 310 ft 124 kts 55°
2026-05-05 16:06 24.53473 118.11458 165 ft 127 kts 54°
2026-05-05 16:06 24.54027 118.12215 56 ft 122 kts 53°
2026-05-05 16:06 24.54418 118.12776 51 ft 61 kts 52°
2026-05-05 16:06 24.54550 118.12961 52 ft 11 kts 52°
2026-05-05 16:07 24.54624 118.13067 49 ft 26 kts 52°
2026-05-05 16:07 24.54699 118.13242 55 ft 26 kts 77°
2026-05-05 16:07 24.54713 118.13324 53 ft 0 kts 82°
2026-05-05 16:07 24.54715 118.13340 52 ft 5 kts 82°
2026-05-05 16:08 24.54722 118.13394 49 ft 10 kts 82°
2026-05-05 16:08 24.54738 118.13486 52 ft 14 kts 75°
2026-05-05 16:08 24.54785 118.13578 53 ft 15 kts 52°
2026-05-05 16:08 24.54855 118.13675 49 ft 14 kts 52°
2026-05-05 16:09 24.54852 118.13749 50 ft 10 kts 122°
2026-05-05 16:09 24.54805 118.13793 49 ft 10 kts 141°
2026-05-05 16:09 24.54799 118.13860 49 ft 8 kts 72°
2026-05-05 16:09 24.54806 118.13888 50 ft 0 kts 75°